Location: Albany
(35.0000°S, 118.0000°E)
Time: 20:33:28
(UTC-05:00)

Cosmos 1346 Rocket - Visible Passes

Search period start: 12 December 2017 00:00
Search period end: 22 December 2017 00:00
Orbit: 524 x 557 km, 81.2° (Epoch: 11 December)

Date Brightness Start Highest point End Pass type
(mag) Time Alt. Az. Time Alt. Az. Time Alt. Az.
12 Dec 5.6 11:30:32 14° ESE 11:30:32 14° ESE 11:31:25 10° SE visible
12 Dec 4.7 13:06:04 22° SW 13:06:04 22° SW 13:08:13 10° SSW visible
13 Dec 5.6 11:23:29 13° SE 11:23:29 13° SE 11:24:17 10° SE visible
13 Dec 4.8 12:59:01 20° SW 12:59:01 20° SW 13:00:59 10° SSW visible
14 Dec 5.6 11:16:25 13° SE 11:16:25 13° SE 11:17:09 10° SE visible
14 Dec 4.9 12:51:57 19° SW 12:51:57 19° SW 12:53:45 10° SSW visible
15 Dec 5.6 11:09:20 13° SE 11:09:20 13° SE 11:10:00 10° SE visible
15 Dec 5.0 12:44:51 18° SW 12:44:51 18° SW 12:46:30 10° SSW visible
16 Dec 5.6 11:02:14 13° SE 11:02:14 13° SE 11:02:52 10° SE visible
16 Dec 5.1 12:37:45 17° SW 12:37:45 17° SW 12:39:16 10° SSW visible
17 Dec 5.6 10:55:07 13° SE 10:55:07 13° SE 10:55:43 10° SE visible
17 Dec 5.2 12:30:38 16° SW 12:30:38 16° SW 12:32:01 10° SSW visible
18 Dec 5.6 10:47:59 13° SE 10:47:59 13° SE 10:48:35 10° SE visible
18 Dec 5.3 12:23:30 16° SW 12:23:30 16° SW 12:24:46 10° SSW visible
19 Dec 5.6 10:40:50 13° SE 10:40:50 13° SE 10:41:25 10° SE visible
19 Dec 5.3 12:16:22 15° SW 12:16:22 15° SW 12:17:31 10° SSW visible
20 Dec 5.6 10:33:41 13° SE 10:33:41 13° SE 10:34:17 10° SE visible
20 Dec 5.4 12:09:12 14° SW 12:09:12 14° SW 12:10:16 10° SSW visible
21 Dec 5.5 10:26:30 13° SE 10:26:30 13° SE 10:27:07 10° SE visible
21 Dec 5.5 12:02:02 14° SW 12:02:02 14° SW 12:03:00 10° SSW visible
